QZS-3 (MICHIBIKI-3) (42917 NORAD) Tracking and Keplerian Element Data

This shows tracking and keplerian element data for the satellite.

Feedback or suggestion? Click here.




ElementValue
Catalog42917
NameQZS-3 (MICHIBIKI-3)
Epoch Orbit734
Epoch Day228.99207341
Epoch Year2019
RAAN174.1419
Inclination0.0523
Eccentricity0.0002614
Argument of Perigee345.6215
Mean Anonmoly289.4907
Mean Motion1.00274365
Decay Rate-3.6E-06
L11 42917U 17048A 19228.99207341 -.00000360 00000-0 00000+0 0 9999
L22 42917 0.0523 174.1419 0002614 345.6215 289.4907 1.00274365 7342

Live tracking and technical data element details for QZS-3 (MICHIBIKI-3) (NORAD 42917). QZS-3 (MICHIBIKI-3) can be tracked NOW for your location showing map with azimuth and elevation plus other details from your city location.

Track the satellite on the map from your city or location and see movement details for azimuth, elevation, latitude, longitude, range, height, and movement on the map or in text.







IsCatalogInMostPopularTable: catalog: 42917, numindb: 295
Update: records affected: 1



GetName: 42917 QZS-3 (MICHIBIKI-3)

Hit Count: updated at: Wed, 21 Aug 2019 11:50:02 GMT